Weather History for KPWM - February, 2014

Change the Weather History Date:

Saturday, February 8, 2014

  Actual Average Record
Temperature  
Mean Temperature 19 °F 24 °F  
Max Temperature 29 °F 33 °F 51 °F (2009)
Min Temperature 8 °F 15 °F -14 °F (1950)
Degree Days  
Heating Degree Days 46 41  
Month to date heating degree days 330 333  
Since 1 July heating degree days 4374 4269  
Cooling Degree Days 0 0  
Month to date cooling degree days 0 0  
Year to date cooling degree days 0 0  
Moisture  
Dew Point 3 °F    
Average Humidity 48    
Maximum Humidity 58    
Minimum Humidity 37    
Precipitation  
Precipitation 0.00 in 0.11 in 1.74 in (1971)
Month to date precipitation 0.72 0.87  
Year to date precipitation 4.77 4.25  
Snow  
Snow 0.00 in 0.50 in 15.30 in (2013)
Month to date snowfall 9.0 3.7  
Since 1 July snowfall 53.3 38.0  
Snow Depth 7.00 in    
Sea Level Pressure  
Sea Level Pressure 30.17 in    
Wind  
Wind Speed 7 mph (West)    
Max Wind Speed 14 mph    
Max Gust Speed 21 mph    
Visibility 10 miles    
Events      
T = Trace of Precipitation, MM = Missing Value Source: NWS Daily Summary

Daily Weather History Graph

Daily Weather History Graph

Search for Another Location

Airport or City:

Trip Planner

Search our weather history database for the weather conditions in past years. The results will help you decide how hot, cold, wet, or windy it might be!

Date:

Astronomy

Feb. 08, 2014 Rise Set
Actual Time 6:49 AM EST 5:01 PM EST
Civil Twilight 6:19 AM EST 5:31 PM EST
Nautical Twilight 5:45 AM EST 6:05 PM EST
Astronomical Twilight 5:12 AM EST 6:39 PM EST
Moon 11:50 AM EST (2/8) 2:01 AM EST (2/8)
Length of Visible Light 11h 12m
Length of Day
10h 12m
Waxing Gibbous, 68% of the Moon is Illuminated
Feb 8
Waxing Gibbous
Feb 14
Full
Feb 22
Last Quarter
Mar 1
New
Mar 8
First Quarter

Hourly Weather History & Observations

Time (EST) Temp. Windchill Dew Point Humidity Pressure Visibility Wind Dir Wind Speed Gust Speed Precip Events Conditions
12:51 AM 19.9 °F 9.3 °F 3.0 °F 48% 30.13 in 10.0 mi WSW 9.2 mph - N/A   Clear
1:51 AM 18.0 °F 8.7 °F 1.9 °F 50% 30.14 in 10.0 mi WSW 6.9 mph - N/A   Clear
2:51 AM 18.0 °F 6.9 °F 1.9 °F 50% 30.14 in 10.0 mi West 9.2 mph - N/A   Clear
3:51 AM 15.1 °F 5.2 °F 1.0 °F 54% 30.16 in 10.0 mi SW 6.9 mph - N/A   Clear
4:51 AM 15.1 °F 4.2 °F -0.0 °F 51% 30.18 in 10.0 mi WSW 8.1 mph - N/A   Clear
5:51 AM 15.1 °F 4.2 °F -0.9 °F 49% 30.20 in 10.0 mi West 8.1 mph - N/A   Clear
6:51 AM 12.9 °F 0.7 °F -0.9 °F 54% 30.22 in 10.0 mi West 9.2 mph - N/A   Clear
7:51 AM 10.0 °F -0.9 °F -2.9 °F 56% 30.23 in 10.0 mi WNW 6.9 mph - N/A   Clear
8:51 AM 16.0 °F 4.4 °F -0.0 °F 49% 30.23 in 10.0 mi West 9.2 mph - N/A   Partly Cloudy
9:51 AM 19.0 °F 8.2 °F 1.9 °F 47% 30.23 in 10.0 mi West 9.2 mph - 0.00 in   Partly Cloudy
10:51 AM 21.0 °F 9.9 °F 1.9 °F 44% 30.22 in 10.0 mi NW 10.4 mph - N/A   Partly Cloudy
11:51 AM 24.1 °F 13.7 °F 3.0 °F 40% 30.19 in 10.0 mi West 10.4 mph - N/A   Partly Cloudy
12:51 PM 26.1 °F 16.8 °F 3.0 °F 37% 30.16 in 10.0 mi SW 9.2 mph - N/A   Partly Cloudy
1:51 PM 27.0 °F 23.0 °F 3.0 °F 36% 30.13 in 10.0 mi West 3.5 mph - N/A   Scattered Clouds
2:51 PM 27.0 °F - 3.0 °F 36% 30.14 in 10.0 mi Calm Calm - N/A   Partly Cloudy
3:51 PM 27.0 °F 19.5 °F 3.0 °F 36% 30.16 in 10.0 mi SSW 6.9 mph - N/A   Partly Cloudy
4:51 PM 25.0 °F 18.1 °F 3.9 °F 41% 30.16 in 10.0 mi WSW 5.8 mph - N/A   Mostly Cloudy
5:51 PM 25.0 °F 19.3 °F 3.9 °F 41% 30.17 in 10.0 mi WSW 4.6 mph - N/A   Mostly Cloudy
6:51 PM 25.0 °F 18.1 °F 3.0 °F 39% 30.17 in 10.0 mi West 5.8 mph - N/A   Mostly Cloudy
7:51 PM 24.1 °F - 3.9 °F 42% 30.16 in 10.0 mi Calm Calm - N/A   Overcast
8:51 PM 23.0 °F 15.8 °F 7.0 °F 50% 30.15 in 10.0 mi NNW 5.8 mph - N/A   Overcast
9:51 PM 21.9 °F 10.4 °F 6.1 °F 51% 30.14 in 10.0 mi NNE 11.5 mph - N/A   Mostly Cloudy
10:51 PM 21.0 °F 9.9 °F 6.1 °F 53% 30.15 in 10.0 mi NNE 10.4 mph - N/A   Overcast
11:51 PM 21.0 °F 11.4 °F 6.1 °F 53% 30.15 in 10.0 mi NNE 8.1 mph - N/A   Overcast